Regional Weather Roundup
Issued by NWS

Home | Current Version | Previous Version | Text Only | Print | Product List | Glossary Off
Versions: 1 2 3 4 5 6 7 8 9 10 11 12 13 14 15 16 17 18 19 20 21 22 23 24 25 26 27 28 29 30 31 32 33 34 35 36 37 38 39 40 41 42 43 44 45 46 47 48 49 50

000
ASUS45 KCYS 220210
RWRWY

WYOMING REGIONAL WEATHER ROUNDUP
NATIONAL WEATHER SERVICE CHEYENNE WY
800 PM MDT SAT APR 21 2018

NOTE:  "FAIR" INDICATES FEW OR NO CLOUDS BELOW 12,000 FEET
WITH NO SIGNIFICANT WEATHER AND/OR OBSTRUCTIONS TO VISIBILITY.

WYZ001-220300-
YELLOWSTONE NATIONAL PARK

CITY           SKY/WX    TMP DP  RH WIND       PRES   REMARKS
LK YELLOWSTONE   N/A     44  24  45 CALM      30.21R
W YELLOWSTONE  NOT AVBL

$$
WYZ002>013-054>058-071-098>099-220300-
NORTHERN WYOMING

CITY           SKY/WX    TMP DP  RH WIND       PRES   REMARKS
JACKSON        FAIR      55  23  28 W8        30.15R
CODY           FAIR      63  25  23 W9G20     30.03R
GREYBULL         N/A    N/A N/A N/A MISG      29.95
WORLAND        FAIR      62  29  28 CALM      29.98R
SHERIDAN       FAIR      59  39  47 S5        29.98R
BUFFALO        FAIR      57  36  45 SE10      30.04R
GILLETTE       FAIR      48  37  65 S10       30.05R
HULETT         FAIR      52  34  50 SW9       30.07R
NEWCASTLE      FAIR      43  34  70 SE13      30.12R

$$
WYZ014>020-022>026-101>103-220300-
CENTRAL WYOMING

CITY           SKY/WX    TMP DP  RH WIND       PRES   REMARKS
BIG PINEY      FAIR      53  24  32 N13       30.17R
PINEDALE       FAIR      52  23  32 W12       30.18R
DUBOIS         FAIR      50  21  32 NW14      30.14R
LANDER         FAIR      60  26  27 CALM      30.02S
RIVERTON       FAIR      59  23  25 E3        30.03S
CASPER         FAIR      53  39  59 E10       30.05R
DOUGLAS        FAIR      43  37  79 SE20G26   30.10R

$$
WYZ021-027>030-104>119-220300-
SOUTHERN WYOMING

CITY           SKY/WX    TMP DP  RH WIND       PRES   REMARKS
EVANSTON       FAIR      53  26  35 NW9       30.21S
KEMMERER       FAIR      52  23  32 W13G21    30.20S
FORT BRIDGER   FAIR      56  23  28 NW15G21   30.22S
ROCK SPRINGS   FAIR      58  17  20 NW14      30.11R
DIXON          FAIR      51  35  53 S9G16     30.16S
RAWLINS          N/A    N/A N/A N/A MISG      30.11R
SARATOGA       FAIR      50  27  40 NW3       30.12S
LARAMIE        FAIR      36  33  89 SE5       30.12S WCI  32
CHEYENNE       FAIR      37  35  92 SW13      30.15S WCI  29
TORRINGTON     FAIR      40  37  89 E10       30.14S WCI  33
PINE BLUFFS    MOCLDY    41  34  75 MISG      30.16S

$$



USA.gov is the U.S. government's official web portal to all federal, state and local government web resources and services.